Date,TemperatureHighF,TemperatureAvgF,TemperatureLowF,DewpointHighF,DewpointAvgF,DewpointLowF,HumidityHigh,HumidityAvg,HumidityLow,PressureMaxIn,PressureMinIn,WindSpeedMaxMPH,WindSpeedAvgMPH,GustSpeedMaxMPH,PrecipitationSumIn
2013-5-1,79.7,68.2,60.1,52.9,44.2,31.1,75,47,19,30.34,30.22,7,0,11,0.00
2013-5-2,71.2,62.0,52.9,44.6,39.2,29.9,58,44,29,30.40,30.31,7,0,11,0.00
2013-5-3,60.3,60.3,60.3,43.1,43.1,43.1,53,53,53,30.32,30.32,0,0,0,0.00
2013-5-4,71.1,62.9,55.8,46.2,42.3,37.3,62,47,37,30.28,30.15,3,0,7,0.07
2013-5-5,68.4,59.1,50.7,49.1,45.3,40.6,79,61,41,30.19,30.08,4,0,6,0.00
2013-5-6,68.9,59.6,53.2,47.8,42.0,34.9,73,53,35,30.14,30.01,6,0,9,0.00
2013-5-7,71.8,66.1,52.2,54.9,52.4,45.0,88,62,52,30.11,30.04,0,0,0,0.00
2013-5-9,62.6,56.2,53.1,61.1,55.3,52.5,99,97,83,29.93,29.86,2,0,4,0.12
2013-5-10,74.8,63.0,53.6,64.3,59.0,52.8,99,88,63,29.93,29.73,7,1,11,0.35
2013-5-11,60.8,55.6,50.0,60.2,52.1,45.7,99,89,65,29.75,29.65,4,1,11,0.08
2013-5-12,53.4,46.3,41.0,47.9,37.8,28.1,96,74,38,29.89,29.67,4,2,8,0.07
2013-5-13,53.2,44.1,38.3,35.9,33.0,30.7,81,66,42,30.11,29.90,7,1,13,0.00
2013-5-14,56.8,46.4,36.7,41.5,36.2,32.6,96,69,45,30.14,29.96,4,1,5,0.00
2013-5-15,83.5,75.2,48.2,60.8,56.9,32.8,97,55,46,29.95,29.50,9,4,17,0.08
2013-5-16,83.5,67.2,52.3,60.6,49.0,40.6,77,53,34,30.01,29.51,5,2,10,0.00
2013-5-17,61.5,53.0,43.5,48.4,45.0,40.5,97,75,53,30.22,30.01,25,0,0,0.00
2013-5-18,68.5,57.0,44.6,53.6,46.1,37.3,99,70,41,30.25,30.14,3,0,5,0.00
2013-5-19,81.1,68.4,59.5,64.5,58.3,50.8,85,71,53,30.14,29.98,9,1,14,0.00
2013-5-20,78.6,70.0,56.8,67.7,62.9,53.8,95,79,64,30.04,29.93,9,1,14,0.00
2013-5-21,76.5,75.1,56.5,66.4,65.8,56.2,99,73,71,29.93,29.78,2,0,3,0.07
2013-5-22,86.0,66.6,56.7,72.9,62.7,56.4,99,88,57,29.80,29.63,8,1,14,0.20
2013-5-23,77.9,67.2,47.3,65.8,59.5,47.0,99,78,53,29.89,29.71,11,2,18,0.06
2013-5-24,53.1,45.7,41.2,47.0,43.0,40.8,99,91,66,30.18,29.89,3,1,8,0.12
2013-5-25,60.1,51.4,45.1,46.6,42.3,38.8,90,72,48,30.20,30.11,3,0,8,0.01
2013-5-26,65.1,54.7,48.0,46.4,41.6,35.3,86,64,37,30.18,30.08,5,0,10,0.00
2013-5-27,66.0,55.3,46.9,47.7,40.5,28.3,78,59,27,30.25,30.11,6,1,11,0.00
2013-5-28,63.5,58.9,53.6,61.2,51.0,39.7,99,77,54,30.14,29.92,5,1,11,0.43
2013-5-29,83.7,68.5,60.1,70.6,63.1,59.8,99,85,54,29.96,29.92,10,2,18,0.32
2013-5-30,91.0,80.8,68.2,71.4,65.4,55.6,86,62,33,30.12,30.02,5,1,11,0.00
2013-5-31,92.3,79.3,70.3,69.5,66.0,62.7,83,66,39,30.08,29.95,8,2,12,0.00